View from above orbital plane
|
View from above satellite
|
Ground track
|
The orbit data is extracted from the following two-line orbital elements,
1 39417U 13066B 21016.00704593 .00000244 00000-0 36856-4 0 9990
2 39417 97.5792 8.3662 0057462 301.7915 57.7710 14.81409196386502
Epoch (UTC): | 16 January 2021 00:10:08 |
Eccentricity: | 0.0057462 |
inclination: | 97.5792° |
perigee height: | 584 km |
apogee height: | 665 km |
right ascension of ascending node: | 8.3662° |
argument of perigee: | 301.7915° |
revolutions per day: | 14.81409196 |
mean anomaly at epoch: | 57.7710° |
orbit number at epoch: | 38650 |
The dashed part of the orbit path shows where the satellite is in the earth's shadow,
|
|